Location: Camoruquito
(9.9001°N, 67.3564°W)
Time: 20:54:00
(UTC+00:00)

USA 267 - Pass Details

Date: 14 April 2024
Orbit: 1101 x 1106 km, 123.0° (Epoch: 01 May)

Event Time Altitude Azimuth Distance (km) Brightness Sun altitude
Rises 08:59:45 0° 168° (SSE) 3,912 6.1 -20.0°
Reaches altitude 10° 09:02:39 10° 180° (S) 2,955 5.4 -19.3°
Maximum altitude 09:07:56 27° 235° (SW) 1,986 4.1 -18.1°
Enters shadow 09:08:38 26° 245° (WSW) 2,007 4.0 -17.9°
